Weather History for KBJC - July, 2012

Change the Weather History Date:

Saturday, July 14, 2012

  Actual Average Record
Temperature  
Mean Temperature 78 °F -  
Max Temperature 93 °F 87 °F 98 °F (2006)
Min Temperature 62 °F 62 °F 50 °F (1987)
Cooling Degree Days 12    
Growing Degree Days 28 (Base 50)    
Moisture  
Dew Point 39 °F    
Average Humidity 29    
Maximum Humidity 45    
Minimum Humidity 9    
Precipitation  
Precipitation 0.00 in - - ()
Sea Level Pressure  
Sea Level Pressure 30.17 in    
Wind  
Wind Speed 4 mph (WSW)    
Max Wind Speed 14 mph    
Max Gust Speed 22 mph    
Visibility 12 miles    
Events      
Averages and records for this station are not official NWS values.
T = Trace of Precipitation, MM = Missing Value Source: NWS Daily Summary

Daily Weather History Graph

Daily Weather History Graph

Search for Another Location

Airport or City:

Trip Planner

Search our weather history database for the weather conditions in past years. The results will help you decide how hot, cold, wet, or windy it might be!

Date:

Astronomy

Jul. 14, 2012 Rise Set
Actual Time 5:44 AM MDT 8:28 PM MDT
Civil Twilight 5:12 AM MDT 8:59 PM MDT
Nautical Twilight 4:32 AM MDT 9:39 PM MDT
Astronomical Twilight 3:47 AM MDT 10:24 PM MDT
Moon 2:00 AM MDT (7/14) 4:55 PM MDT (7/14)
Length of Visible Light 15h 47m
Length of Day
14h 44m
Waning Crescent, 18% of the Moon is Illuminated
Jul 14
Waning Crescent
Jul 18
New
Jul 26
First Quarter
Aug 1
Full
Aug 9
Last Quarter

Hourly Weather History & Observations

Time (MDT) Temp. Dew Point Humidity Pressure Visibility Wind Dir Wind Speed Gust Speed Precip Events Conditions
12:09 AM 78.8 °F 35.6 °F 21% 30.21 in 10.0 mi Calm Calm - N/A   Clear
12:29 AM 77.0 °F 35.6 °F 22% 30.21 in 10.0 mi Calm Calm - N/A   Clear
12:48 AM 73.4 °F 39.2 °F 29% 30.21 in 10.0 mi South 3.5 mph - N/A   Clear
1:09 AM 73.4 °F 41.0 °F 31% 30.21 in 10.0 mi SSW 4.6 mph - N/A   Clear
1:29 AM 71.6 °F 41.0 °F 33% 30.20 in 10.0 mi SSW 5.8 mph - N/A   Clear
1:49 AM 69.8 °F 41.0 °F 35% 30.20 in 10.0 mi SSW 4.6 mph - N/A   Clear
2:08 AM 68.0 °F 42.8 °F 40% 30.19 in 10.0 mi WSW 4.6 mph - N/A   Clear
2:28 AM 66.2 °F 42.8 °F 43% 30.19 in 10.0 mi WSW 3.5 mph - N/A   Clear
2:49 AM 68.0 °F 41.0 °F 37% 30.19 in 10.0 mi WSW 4.6 mph - N/A   Clear
3:09 AM 64.4 °F 42.8 °F 45% 30.19 in 10.0 mi WSW 3.5 mph - N/A   Clear
3:29 AM 64.4 °F 41.0 °F 42% 30.18 in 10.0 mi WSW 5.8 mph - N/A   Clear
3:49 AM 64.4 °F 41.0 °F 42% 30.17 in 10.0 mi WSW 6.9 mph - N/A   Clear
4:09 AM 64.4 °F 41.0 °F 42% 30.17 in 10.0 mi WSW 4.6 mph - N/A   Clear
4:29 AM 64.4 °F 41.0 °F 42% 30.17 in 10.0 mi SW 3.5 mph - N/A   Clear
4:49 AM 64.4 °F 41.0 °F 42% 30.18 in 10.0 mi SSW 3.5 mph - N/A   Clear
5:09 AM 64.4 °F 41.0 °F 42% 30.18 in 10.0 mi SW 4.6 mph - N/A   Clear
5:29 AM 62.6 °F 41.0 °F 45% 30.18 in 10.0 mi West 3.5 mph - N/A   Clear
5:47 AM 66.2 °F 37.4 °F 35% 30.19 in 40.0 mi Calm Calm - N/A   Mostly Cloudy
5:49 AM 64.4 °F 37.4 °F 37% 30.19 in 10.0 mi Calm Calm - N/A   Clear
6:55 AM 66.2 °F 41.0 °F 40% 30.21 in 40.0 mi NNW 5.8 mph - N/A   Mostly Cloudy
7:48 AM 73.4 °F 44.6 °F 36% 30.22 in 40.0 mi Calm Calm - N/A   Mostly Cloudy
8:50 AM 77.0 °F 39.2 °F 26% 30.23 in 40.0 mi North 3.5 mph - N/A   Mostly Cloudy
9:50 AM 78.8 °F 39.2 °F 24% 30.23 in 20.0 mi North 4.6 mph - N/A   Mostly Cloudy
10:47 AM 82.4 °F 39.2 °F 21% 30.23 in 20.0 mi East 5.8 mph - N/A   Mostly Cloudy
11:47 AM 86.0 °F 39.2 °F 19% 30.22 in 20.0 mi ENE 3.5 mph - N/A   Mostly Cloudy
12:52 PM 91.4 °F 32.0 °F 12% 30.18 in 20.0 mi ESE 8.1 mph - N/A   Mostly Cloudy
1:48 PM 93.2 °F 28.4 °F 10% 30.15 in 20.0 mi East 11.5 mph 21.9 mph N/A   Mostly Cloudy
2:53 PM 93.2 °F 26.6 °F 9% 30.14 in 20.0 mi ESE 6.9 mph - N/A   Mostly Cloudy
3:51 PM 91.4 °F 26.6 °F 10% 30.12 in 30.0 mi ESE 5.8 mph - N/A   Mostly Cloudy
4:23 PM 89.6 °F 35.6 °F 15% 30.12 in 30.0 mi WNW 10.4 mph - N/A   Mostly Cloudy
4:47 PM 84.2 °F 39.2 °F 20% 30.12 in 30.0 mi West 13.8 mph - N/A   Mostly Cloudy
5:47 PM 82.4 °F 39.2 °F 21% 30.11 in 30.0 mi West 11.5 mph - N/A   Mostly Cloudy
6:45 PM 84.2 °F 41.0 °F 22% 30.10 in 30.0 mi WNW 8.1 mph - N/A   Mostly Cloudy
7:48 PM 82.4 °F 39.2 °F 21% 30.12 in 50.0 mi WSW 11.5 mph - N/A   Mostly Cloudy
8:46 PM 78.8 °F 41.0 °F 26% 30.13 in 50.0 mi WSW 8.1 mph - N/A   Mostly Cloudy
9:49 PM 80.6 °F 37.4 °F 21% 30.14 in 30.0 mi Calm Calm - N/A   Mostly Cloudy
11:08 PM 77.0 °F 39.2 °F 26% 30.14 in 10.0 mi Calm Calm - N/A   Clear
11:29 PM 77.0 °F 37.4 °F 24% 30.13 in 10.0 mi North 4.6 mph - N/A   Clear
11:49 PM 77.0 °F 39.2 °F 26% 30.13 in 10.0 mi Calm Calm - N/A   Clear